[[{"header":{"parameterUnit":"m.s-1","parameterCategory":1,"la1":30.2991,"la2":30.254,"lo1":-89.0895,"lo2":-89.0444,"dy":0.0017,"dx":0.0017,"nx":28,"ny":28,"refTime":"2025-12-17T09:00:00:Z","depth":0,"parameterNumber":2,"parameterNumberName":"U-component_of_WINDS"},"data":[0,0,0,0,0,0,0,0,0,0,0,0,0,0,0,0,0,0,0,0,0,0,0,0,0,0,0,0,0,0,0,0,0,0,0,0,0,0,0,0,0,0,0,0,0,0,0,0,0,0,0,0,0,0,0,0,0,0,-3.2733,-3.2733,0,-3.2794,-3.2794,-3.2795,-3.2653,-3.2649,-3.2644,-3.264,-3.2705,-3.2711,-3.2716,0,0,0,0,0,0,0,0,0,0,0,0,0,-3.2497,-3.2502,-3.2733,-3.2733,-3.2734,-3.2794,-3.2794,-3.2795,-3.2654,-3.2648,-3.2643,-3.2638,-3.2703,-3.271,-3.2717,0,0,0,0,0,0,0,0,0,0,0,0,0,-3.2583,-3.2504,-3.2733,-3.2671,-3.2666,-3.2793,-3.2794,-3.2795,-3.2655,-3.2648,-3.2642,-3.2635,-3.27,-3.2709,-3.2718,-3.2909,0,0,-3.2745,-3.2749,0,0,0,0,0,0,0,0,-3.2578,-3.2592,-3.2679,-3.2675,-3.267,-3.2709,-3.2735,-3.2834,-3.2657,-3.2659,-3.264,-3.2632,-3.2712,-3.2719,-3.2746,-3.2912,-3.2915,-3.2746,-3.2751,-3.2755,-3.2758,0,0,0,0,0,0,0,-3.2572,-3.2588,-3.2757,-3.2681,-3.2675,-3.2641,-3.2646,-3.2753,-3.2723,-3.2659,-3.2648,-3.2657,-3.2708,-3.2738,-3.2746,-3.2916,-3.2746,-3.2754,-3.2759,-3.2763,-3.3243,-3.325,0,0,0,0,0,0,-3.2574,-3.2584,-3.2755,-3.2759,-3.2606,-3.2651,-3.2656,-3.2703,-3.2721,-3.2718,-3.2663,-3.2651,-3.2726,-3.2736,-3.2748,-3.2974,-3.2755,-3.2764,-3.2769,-3.3236,-3.3245,-3.3253,0,0,0,0,0,0,-3.2569,-3.2591,-3.2752,-3.2669,-3.2687,-3.2662,-3.2716,-3.2708,-3.2737,-3.2725,-3.2719,-3.2699,-3.2721,-3.2735,-3.287,-3.2974,-3.2768,-3.2776,-3.3227,-3.3239,-3.3249,-3.3428,0,0,0,0,0,0,-3.2563,-3.259,-3.2661,-3.2671,-3.2692,-3.2873,-3.2723,-3.2714,-3.2753,-3.2737,-3.2757,-3.2753,-3.2716,-3.2858,-3.2879,-3.2983,-3.2783,-3.3218,-3.3232,-3.3245,-3.3412,-3.3443,-3.347,0,0,0,0,0,-3.2555,-3.2709,-3.2666,-3.2687,-3.2781,-3.288,-3.2891,-3.2845,-3.2762,-3.2834,-3.2826,-3.2753,-3.2959,-3.2873,-3.2896,-3.3004,-3.3211,-3.3228,-3.3244,-3.3399,-3.3437,-3.3469,0,0,0,0,0,0,-3.2713,-3.2709,-3.2661,-3.2823,-3.2853,-3.2855,-3.2945,-3.2886,-3.2941,-3.2924,-3.2865,-3.287,-3.3017,-3.3023,-3.2927,-3.319,-3.3071,-3.3093,-3.3181,-3.3217,-3.3245,-3.3242,-3.279,0,0,0,0,0,-3.2766,-3.2846,-3.2839,-3.2982,-3.3,-3.2971,-3.3012,-3.2973,-3.3002,-3.3014,-3.3016,-3.3048,-3.3119,-3.3168,-3.3234,-3.3412,-3.3415,-3.3498,-3.3527,-3.355,-3.3571,-3.3668,-3.3705,-3.3308,-3.3308,-3.3307,0,0,-3.2878,-3.2886,-3.294,-3.3014,-3.3033,-3.3118,-3.2982,-3.3077,-3.314,-3.3029,-3.3157,-3.3159,-3.3191,-3.3349,-3.3418,-3.3358,-3.3681,-3.3572,-3.3591,-3.3598,-3.3689,-3.3726,-3.376,-3.3319,-3.3317,-3.3315,0,0,-3.3124,-3.3138,-3.3259,-3.3281,-3.3311,-3.329,-3.332,-3.3332,-3.333,-3.3456,-3.3375,-3.345,-3.3574,-3.36,-3.363,-3.3889,-3.3824,-3.3911,-3.4063,-3.4158,-3.419,-3.4217,-3.4311,-3.4345,-3.3931,-3.3932,-3.3932,0,-3.3259,-3.3384,-3.333,-3.3431,-3.3467,-3.337,-3.3494,-3.3517,-3.3568,-3.3595,-3.3527,-3.3682,-3.3696,-3.386,-3.3923,-3.395,-3.3983,-3.391,-3.4189,-3.4216,-3.4241,-3.433,-3.4366,-3.3942,-3.3941,-3.394,-3.3939,0,-3.3549,-3.3637,-3.3732,-3.3783,-3.3829,-3.3941,-3.3906,-3.3959,-3.3917,-3.3905,-3.4036,-3.405,-3.4117,-3.4153,-3.4112,-3.4312,-3.4274,-3.4199,-3.4078,-3.4291,-3.4373,-3.4407,-3.3958,-3.3954,-3.3951,-3.3948,0,0,-3.3897,-3.3917,-3.3953,-3.3976,-3.4002,-3.4069,-3.4178,-3.4243,-3.4291,-3.4329,-3.442,-3.4528,-3.4459,-3.4493,-3.4455,-3.4538,-3.4745,-3.4452,-3.4452,-3.4508,-3.4967,-3.5025,-3.5066,-3.4701,-3.4707,-3.4712,-3.4965,0,-3.4143,-3.4329,-3.4284,-3.4469,-3.455,-3.4459,-3.4553,-3.4581,-3.4572,-3.4641,-3.463,-3.4709,-3.4611,-3.4631,-3.4709,-3.4703,-3.4836,-3.4684,-3.4787,-3.4791,-3.4784,-3.5108,-3.517,-3.5408,-3.4997,-3.5003,-3.5007,0,-3.4454,-3.4504,-3.4697,-3.4712,-3.4744,-3.483,-3.4887,-3.4953,-3.4983,-3.497,-3.5009,-3.4955,-3.5064,-3.4941,-3.5092,-3.4989,-3.5028,-3.5032,-3.504,-3.5049,-3.4913,-3.5129,-3.5483,-3.5519,-3.5057,-3.5053,-3.5049,0,-3.4692,-3.4807,-3.4938,-3.496,-3.4979,-3.5042,-3.5053,-3.5075,-3.5118,-3.5168,-3.5196,-3.5258,-3.5293,-3.5343,-3.5308,-3.5222,-3.5465,-3.5339,-3.546,-3.5461,-3.5516,-3.5514,-3.5884,-3.5539,-3.5539,-3.5538,-3.5537,0,-3.4972,-3.5094,-3.5045,-3.5126,-3.526,-3.5208,-3.5343,-3.5343,-3.5365,-3.5445,-3.5369,-3.5447,-3.5394,-3.5468,-3.5441,-3.5571,-3.5586,-3.5581,-3.5573,-3.5589,-3.559,-3.5615,-3.5599,-3.5547,-3.5545,-3.5544,-3.5542,0,-3.526,-3.5232,-3.5369,-3.5376,-3.538,-3.548,-3.5486,-3.5562,-3.5547,-3.565,-3.5671,-3.565,-3.5732,-3.5702,-3.5789,-3.5771,-3.5938,-3.5907,-3.5928,-3.5921,-3.6044,-3.6034,-3.6445,-3.6497,-3.6118,-3.6121,-3.6124,0,-3.5441,-3.5533,-3.555,-3.5598,-3.5615,-3.5693,-3.5736,-3.5689,-3.5737,-3.5778,-3.585,-3.5925,-3.5984,-3.612,-3.6113,-3.618,-3.6152,-3.6291,-3.6161,-3.6175,-3.6156,-3.6152,-3.6162,-3.6318,-3.6322,-3.6326,-3.6328,0,-3.5767,-3.5749,-3.5813,-3.5875,-3.5928,-3.5974,-3.6013,-3.6057,-3.6012,-3.607,-3.6153,-3.6199,-3.6289,-3.6366,-3.6426,-3.6438,-3.6378,-3.6369,-3.6401,-3.642,-3.6429,-3.6428,-3.6001,-3.636,-3.6357,-3.6355,-3.6353,-3.6352,-3.6008,-3.6086,-3.6111,-3.6187,-3.6211,-3.625,-3.6322,-3.6317,-3.6385,-3.6454,-3.6422,-3.6519,-3.6547,-3.6622,-3.6644,-3.672,-3.6666,-3.6711,-3.6723,-3.6736,-3.6753,-3.6416,-3.673,-3.6729,-3.6728,-3.6728,-3.6727,0,-3.6332,-3.6343,-3.6413,-3.647,-3.653,-3.6466,-3.6506,-3.6561,-3.6647,-3.6679,-3.6738,-3.6835,-3.6909,-3.6908,-3.6978,-3.7039,-3.7013,-3.7059,-3.7055,-3.7059,-3.6796,-3.6763,-3.7079,-3.7079,-3.7079,-3.7079,-3.7079,-3.7079,-3.6507,-3.6636,-3.6622,-3.6763,-3.6773,-3.6868,-3.6897,-3.6933,-3.6957,-3.7069,-3.713,-3.7129,-3.7148,-3.7218,-3.7285,-3.7282,-3.7313,-3.737,-3.7358,-3.7112,-3.7078,-3.7044,-3.7012,-3.7376,-3.7377,-3.7615,-3.7617,-3.7619]},{"header":{"parameterUnit":"m.s-1","parameterCategory":1,"la1":30.2991,"la2":30.254,"lo1":-89.0895,"lo2":-89.0444,"dy":0.0017,"dx":0.0017,"nx":28,"ny":28,"refTime":"2025-12-17T09:00:00:Z","depth":0,"parameterNumber":3,"parameterNumberName":"V-component_of_WINDS"},"data":[0,0,0,0,0,0,0,0,0,0,0,0,0,0,0,0,0,0,0,0,0,0,0,0,0,0,0,0,0,0,0,0,0,0,0,0,0,0,0,0,0,0,0,0,0,0,0,0,0,0,0,0,0,0,0,0,0,0,-0.7638,-0.7638,0,-0.7623,-0.7623,-0.7623,-0.7624,-0.7624,-0.7624,-0.7624,-0.7608,-0.7608,-0.7607,0,0,0,0,0,0,0,0,0,0,0,0,0,-0.7664,-0.7664,-0.7638,-0.7638,-0.7638,-0.7624,-0.7623,-0.7623,-0.7624,-0.7624,-0.7624,-0.7625,-0.7609,-0.7608,-0.7607,0,0,0,0,0,0,0,0,0,0,0,0,0,-0.7652,-0.7664,-0.7638,-0.7637,-0.7636,-0.7624,-0.7623,-0.7623,-0.7624,-0.7624,-0.7624,-0.7625,-0.7609,-0.7608,-0.7607,-0.7595,0,0,-0.7604,-0.7604,0,0,0,0,0,0,0,0,-0.7652,-0.7651,-0.7637,-0.7637,-0.7636,-0.7626,-0.7627,-0.7614,-0.7624,-0.7628,-0.7624,-0.7625,-0.7614,-0.7613,-0.7609,-0.7594,-0.7594,-0.7604,-0.7604,-0.7603,-0.7603,0,0,0,0,0,0,0,-0.7653,-0.7651,-0.7632,-0.7637,-0.7636,-0.7635,-0.7634,-0.7624,-0.762,-0.7628,-0.7628,-0.7626,-0.7614,-0.761,-0.7609,-0.7593,-0.7604,-0.7603,-0.7603,-0.7602,-0.7565,-0.7564,0,0,0,0,0,0,-0.7655,-0.7652,-0.7633,-0.7632,-0.7645,-0.7635,-0.7633,-0.7629,-0.762,-0.7619,-0.7626,-0.7626,-0.7611,-0.761,-0.7608,-0.7592,-0.7603,-0.7602,-0.7602,-0.7565,-0.7565,-0.7564,0,0,0,0,0,0,-0.7655,-0.7653,-0.7633,-0.7642,-0.7639,-0.7634,-0.7629,-0.7628,-0.7625,-0.7618,-0.7617,-0.7623,-0.7612,-0.761,-0.7598,-0.7591,-0.7602,-0.7601,-0.7566,-0.7565,-0.7565,-0.756,0,0,0,0,0,0,-0.7656,-0.7653,-0.765,-0.7642,-0.7639,-0.7624,-0.7629,-0.7628,-0.7623,-0.7623,-0.7615,-0.7614,-0.7612,-0.7599,-0.7597,-0.759,-0.76,-0.7566,-0.7565,-0.7565,-0.7561,-0.7559,-0.7558,0,0,0,0,0,-0.7657,-0.7649,-0.7649,-0.7647,-0.7634,-0.7624,-0.7622,-0.762,-0.7623,-0.7618,-0.7613,-0.7615,-0.7592,-0.7598,-0.7595,-0.7588,-0.7567,-0.7566,-0.7565,-0.7561,-0.756,-0.7558,0,0,0,0,0,0,-0.7657,-0.7648,-0.7648,-0.7638,-0.7631,-0.7624,-0.7619,-0.7618,-0.7611,-0.7611,-0.7608,-0.7606,-0.7594,-0.759,-0.7596,-0.7575,-0.758,-0.7578,-0.7578,-0.7576,-0.7575,-0.7576,-0.76,0,0,0,0,0,-0.7655,-0.7648,-0.7641,-0.7633,-0.7629,-0.7624,-0.762,-0.7618,-0.7611,-0.7608,-0.7603,-0.7596,-0.7587,-0.7581,-0.7573,-0.756,-0.7557,-0.7553,-0.7552,-0.7551,-0.755,-0.754,-0.7538,-0.7561,-0.7561,-0.7561,0,0,-0.7653,-0.7647,-0.7643,-0.7632,-0.7627,-0.7619,-0.7622,-0.7614,-0.7607,-0.7607,-0.7595,-0.7591,-0.7582,-0.7569,-0.7563,-0.7565,-0.7542,-0.755,-0.7549,-0.7548,-0.7539,-0.7537,-0.7535,-0.756,-0.756,-0.7561,0,0,-0.7644,-0.7639,-0.7631,-0.7625,-0.7617,-0.7613,-0.7611,-0.7603,-0.7599,-0.7587,-0.7587,-0.7578,-0.7564,-0.7557,-0.7552,-0.7536,-0.7536,-0.7534,-0.7527,-0.7518,-0.7516,-0.7514,-0.7507,-0.7505,-0.7532,-0.7532,-0.7532,0,-0.7641,-0.7629,-0.7626,-0.7617,-0.7612,-0.761,-0.7601,-0.7595,-0.7585,-0.758,-0.7583,-0.7563,-0.7557,-0.7541,-0.7537,-0.7534,-0.753,-0.7535,-0.7516,-0.7515,-0.7513,-0.7506,-0.7504,-0.7532,-0.7532,-0.7532,-0.7532,0,-0.7626,-0.7617,-0.7611,-0.7601,-0.7594,-0.7585,-0.7579,-0.7573,-0.7571,-0.7566,-0.7553,-0.7545,-0.7535,-0.7531,-0.7529,-0.7514,-0.7515,-0.7517,-0.7522,-0.751,-0.7504,-0.7502,-0.7532,-0.7532,-0.7532,-0.7532,0,0,-0.7618,-0.7604,-0.7602,-0.7596,-0.7585,-0.7578,-0.7567,-0.7556,-0.755,-0.7542,-0.7532,-0.7519,-0.7519,-0.7513,-0.7511,-0.7502,-0.7489,-0.7505,-0.7505,-0.7501,-0.7469,-0.7467,-0.7465,-0.7488,-0.7488,-0.7487,-0.7469,0,-0.7607,-0.759,-0.7585,-0.7569,-0.756,-0.7557,-0.7548,-0.754,-0.7534,-0.7525,-0.7519,-0.7509,-0.7511,-0.7507,-0.7499,-0.7492,-0.7482,-0.7493,-0.7478,-0.7478,-0.748,-0.7462,-0.7461,-0.7444,-0.7467,-0.7467,-0.7466,0,-0.7593,-0.7584,-0.7567,-0.7555,-0.7551,-0.7543,-0.7531,-0.7522,-0.7512,-0.7508,-0.75,-0.7498,-0.7485,-0.749,-0.7471,-0.7479,-0.7472,-0.7467,-0.7467,-0.7465,-0.7471,-0.7459,-0.7439,-0.7436,-0.7463,-0.7463,-0.7463,0,-0.7588,-0.7571,-0.7558,-0.7553,-0.7539,-0.7533,-0.7527,-0.7517,-0.751,-0.7499,-0.7494,-0.7482,-0.7475,-0.7465,-0.7459,-0.7463,-0.744,-0.7445,-0.7436,-0.7436,-0.7431,-0.7432,-0.7409,-0.7427,-0.7427,-0.7428,-0.7428,0,-0.7576,-0.7566,-0.7555,-0.7547,-0.7535,-0.7528,-0.7516,-0.7509,-0.75,-0.7489,-0.7486,-0.7476,-0.7469,-0.7457,-0.7452,-0.7436,-0.7433,-0.7429,-0.7428,-0.743,-0.743,-0.7425,-0.7426,-0.7427,-0.7427,-0.7427,-0.7427,0,-0.7569,-0.7561,-0.7547,-0.7534,-0.7531,-0.7522,-0.751,-0.7502,-0.7495,-0.7482,-0.7478,-0.7468,-0.7454,-0.7447,-0.743,-0.7426,-0.7408,-0.7408,-0.7412,-0.7411,-0.7402,-0.7402,-0.7375,-0.7371,-0.7392,-0.7392,-0.7392,0,-0.7562,-0.7553,-0.7539,-0.7532,-0.7525,-0.7514,-0.7506,-0.7499,-0.7491,-0.7476,-0.7469,-0.7455,-0.7443,-0.7421,-0.7411,-0.7397,-0.7396,-0.7387,-0.7394,-0.7395,-0.7395,-0.7395,-0.7393,-0.7386,-0.7386,-0.7386,-0.7386,0,-0.755,-0.7546,-0.7535,-0.7522,-0.7512,-0.7502,-0.7491,-0.7485,-0.7476,-0.7466,-0.7452,-0.7442,-0.7424,-0.7409,-0.7394,-0.7386,-0.7384,-0.7383,-0.738,-0.7382,-0.7384,-0.7382,-0.7408,-0.7384,-0.7385,-0.7385,-0.7385,-0.7385,-0.7542,-0.7533,-0.7521,-0.7508,-0.7499,-0.7489,-0.7479,-0.7471,-0.7459,-0.7443,-0.7439,-0.7423,-0.741,-0.7389,-0.7381,-0.7368,-0.7369,-0.7365,-0.7364,-0.7363,-0.7362,-0.7386,-0.7365,-0.7365,-0.7365,-0.7365,-0.7365,0,-0.7529,-0.752,-0.7509,-0.7493,-0.7482,-0.748,-0.7468,-0.7458,-0.7445,-0.7433,-0.7421,-0.7403,-0.7387,-0.7376,-0.736,-0.7351,-0.735,-0.7347,-0.7348,-0.7346,-0.7362,-0.7366,-0.7349,-0.7349,-0.7349,-0.7349,-0.7349,-0.7349,-0.7521,-0.7506,-0.75,-0.748,-0.7471,-0.7455,-0.7448,-0.7437,-0.7428,-0.7408,-0.7395,-0.7387,-0.7374,-0.7357,-0.7342,-0.7339,-0.7333,-0.7331,-0.7327,-0.7343,-0.7345,-0.7347,-0.735,-0.733,-0.733,-0.7312,-0.7312,-0.7312]}]]